Epoch 2001 June 20.0 TT = JDT 2452080.5 T 2001 June 19.5032 TT MPCN q 3.156087 (2000.0) P Q z +0.000412 Peri. 272.6499 +0.2558229 +0.9348889 +/-0.000003 Node 18.9651 -0.2516615 +0.3101411 e 0.998701 Incl. 49.2070 -0.9333923 +0.1726128 From 88 observations 2000 Jan. 28-2001 Nov. 13, mean residual 0".7.
m1 = 6.5 + 5 logΔ + 10.0 log r